Zurück zum Katalog

FENGYUN 1C DEB

AktivSSO
NORAD 30621·DEBRIS·🇨🇳 China

Gestartet May 10, 1999 von Taiyuan Satellite Launch Center

Loading…

Nächste Überflüge (nächste 24 Stunden)

TLE

AktuellSource: Space-Track

Epoche: Sep 14, 2026, 06:47 UTC

1 30621U 99025ANC 26257.28276103  .00001959  00000-0  11418-2 0  9999
2 30621  98.7021 194.4343 0132270 252.3358 267.6528 14.05370412994580

Verfolge FENGYUN 1C DEB in Echtzeit mit AllMySat

Download on the App Store